When you browse on this site, cookies collect data to enhance your experience and personalize the content and advertising you see.
Visit our Privacy Policy to learn more. By continuing to use the site, you agree to this use of cookies and data.
  • In Hungary
  • List of Countries
  • For 7 days
  • Water Temperature
  • Satellite Maps
  • Weather Map
  • News
  • Weather Widgets
  • user-avatar
    Login

    Hourly Weather Itaperucu

    Today, 17 November, Saturday

    Time Temperature Precipitation Wind Pressure Humidity
    00:00 +15°C° 0 mm 2 mps 679 mmHg 93%
    01:00 +15°C° 0 mm 1 mps 679 mmHg 93%
    02:00 +14°C° 0 mm 1 mps 679 mmHg 93%
    03:00 +14°C° 0 mm 1 mps 678 mmHg 93%
    04:00 +14°C° 0 mm 1 mps 679 mmHg 93%
    05:00 +14°C° 0 mm 1 mps 679 mmHg 93%
    06:00 +14°C° 0 mm 1 mps 679 mmHg 92%
    07:00 +16°C° 0 mm 2 mps 679 mmHg 83%
    08:00 +18°C° 0 mm 2 mps 680 mmHg 73%
    09:00 +20°C° 0 mm 2 mps 680 mmHg 63%
    10:00 +23°C° 0 mm 2 mps 680 mmHg 57%
    11:00 +25°C° 0 mm 2 mps 680 mmHg 51%
    12:00 +27°C° 0 mm 2 mps 680 mmHg 45%
    13:00 +27°C° 0 mm 2 mps 680 mmHg 46%
    14:00 +28°C° 0 mm 2 mps 679 mmHg 47%
    15:00 +28°C° 0 mm 2 mps 679 mmHg 48%
    16:00 +27°C° 0 mm 2 mps 678 mmHg 55%
    17:00 +25°C° 0 mm 2 mps 678 mmHg 62%
    18:00 +24°C° 0 mm 2 mps 677 mmHg 69%
    19:00 +21°C° 0 mm 2 mps 677 mmHg 76%
    20:00 +20°C° 0 mm 2 mps 677 mmHg 83%
    21:00 +18°C° 0 mm 2 mps 677 mmHg 90%
    22:00 +19°C° 0 mm 1 mps 677 mmHg 91%
    23:00 +18°C° 0 mm 1 mps 677 mmHg 93%

    Tomorrow, 18 November, Sunday

    Time Temperature Precipitation Wind Pressure Humidity
    00:00 +18°C° 0 mm 1 mps 676 mmHg 95%
    01:00 +18°C° 0 mm 1 mps 676 mmHg 95%
    02:00 +18°C° 0 mm 1 mps 675 mmHg 95%
    03:00 +18°C° 0 mm 1 mps 675 mmHg 95%
    04:00 +18°C° 0 mm 1 mps 675 mmHg 94%
    05:00 +19°C° 0 mm 1 mps 675 mmHg 93%
    06:00 +19°C° 0 mm 1 mps 675 mmHg 91%
    07:00 +20°C° 0 mm 2 mps 675 mmHg 85%
    08:00 +22°C° 0 mm 3 mps 676 mmHg 79%
    09:00 +24°C° 0 mm 3 mps 676 mmHg 73%
    10:00 +25°C° 0 mm 3 mps 676 mmHg 69%
    11:00 +26°C° 0 mm 3 mps 676 mmHg 65%
    12:00 +27°C° 0 mm 3 mps 676 mmHg 62%
    13:00 +26°C° 1.7 mm 3 mps 676 mmHg 70%
    14:00 +26°C° 1.7 mm 2 mps 675 mmHg 78%
    15:00 +25°C° 1.7 mm 2 mps 675 mmHg 85%
    16:00 +24°C° 3.1 mm 1 mps 675 mmHg 89%
    17:00 +23°C° 3.1 mm 1 mps 675 mmHg 92%
    18:00 +21°C° 3.1 mm 1 mps 675 mmHg 95%
    19:00 +21°C° 1.1 mm 1 mps 675 mmHg 96%
    20:00 +21°C° 1.1 mm 1 mps 675 mmHg 97%
    21:00 +20°C° 1.1 mm 1 mps 676 mmHg 97%
    22:00 +20°C° 0.2 mm 1 mps 676 mmHg 97%
    23:00 +20°C° 0.2 mm 1 mps 676 mmHg 97%

    Day after tomorrow, 19 November, Monday

    Time Temperature Precipitation Wind Pressure Humidity
    00:00 +19°C° 0.2 mm 2 mps 676 mmHg 98%
    01:00 +18°C° 0.2 mm 2 mps 676 mmHg 97%
    02:00 +18°C° 0.2 mm 2 mps 675 mmHg 97%
    03:00 +18°C° 0.2 mm 2 mps 675 mmHg 97%
    04:00 +17°C° 0.3 mm 2 mps 675 mmHg 96%
    05:00 +16°C° 0.3 mm 2 mps 676 mmHg 96%
    06:00 +16°C° 0.3 mm 2 mps 676 mmHg 96%
    07:00 +16°C° 0.2 mm 2 mps 676 mmHg 96%
    08:00 +15°C° 0.2 mm 2 mps 677 mmHg 95%
    09:00 +15°C° 0.2 mm 2 mps 677 mmHg 95%
    10:00 +16°C° 0.1 mm 2 mps 678 mmHg 89%
    11:00 +17°C° 0.1 mm 2 mps 678 mmHg 84%
    12:00 +18°C° 0.1 mm 2 mps 678 mmHg 78%
    13:00 +18°C° 0.1 mm 2 mps 678 mmHg 78%
    14:00 +18°C° 0.1 mm 2 mps 677 mmHg 77%
    15:00 +18°C° 0.1 mm 2 mps 677 mmHg 77%
    16:00 +17°C° 0.1 mm 2 mps 677 mmHg 80%
    17:00 +16°C° 0.1 mm 2 mps 677 mmHg 84%
    18:00 +16°C° 0.1 mm 2 mps 676 mmHg 88%
    19:00 +15°C° 0 mm 2 mps 677 mmHg 89%
    20:00 +15°C° 0 mm 2 mps 677 mmHg 90%
    21:00 +14°C° 0 mm 2 mps 678 mmHg 91%
    22:00 +14°C° 0 mm 2 mps 678 mmHg 91%
    23:00 +14°C° 0 mm 1 mps 678 mmHg 91%

    20 November, Tuesday

    Time Temperature Precipitation Wind Pressure Humidity
    00:00 +14°C° 0 mm 1 mps 678 mmHg 92%
    01:00 +14°C° 0 mm 1 mps 678 mmHg 92%
    02:00 +14°C° 0 mm 1 mps 677 mmHg 93%
    03:00 +14°C° 0 mm 1 mps 677 mmHg 94%
    04:00 +14°C° 0 mm 1 mps 677 mmHg 93%
    05:00 +14°C° 0 mm 1 mps 677 mmHg 93%
    06:00 +14°C° 0 mm 1 mps 677 mmHg 92%
    07:00 +15°C° 0 mm 1 mps 678 mmHg 87%
    08:00 +16°C° 0 mm 2 mps 678 mmHg 82%
    09:00 +17°C° 0 mm 2 mps 679 mmHg 76%
    10:00 +19°C° 0 mm 2 mps 679 mmHg 69%
    11:00 +21°C° 0 mm 2 mps 680 mmHg 63%
    12:00 +23°C° 0 mm 2 mps 680 mmHg 56%
    13:00 +24°C° 0 mm 2 mps 679 mmHg 56%
    14:00 +24°C° 0 mm 2 mps 679 mmHg 57%
    15:00 +24°C° 0 mm 3 mps 679 mmHg 57%
    16:00 +21°C° 0 mm 3 mps 678 mmHg 63%
    17:00 +20°C° 0 mm 3 mps 678 mmHg 69%
    18:00 +18°C° 0 mm 2 mps 678 mmHg 75%
    19:00 +17°C° 0 mm 2 mps 678 mmHg 81%
    20:00 +15°C° 0 mm 2 mps 678 mmHg 86%
    21:00 +14°C° 0 mm 2 mps 679 mmHg 92%
    22:00 +13°C° 0 mm 1 mps 679 mmHg 93%
    23:00 +13°C° 0 mm 1 mps 678 mmHg 95%

    21 November, Wednesday

    Time Temperature Precipitation Wind Pressure Humidity
    00:00 +12°C° 0 mm 1 mps 678 mmHg 96%
    01:00 +12°C° 0 mm 1 mps 678 mmHg 96%
    02:00 +12°C° 0 mm 1 mps 678 mmHg 96%
    03:00 +12°C° 0 mm 1 mps 677 mmHg 96%
    04:00 +12°C° 0 mm 1 mps 678 mmHg 95%
    05:00 +13°C° 0 mm 1 mps 678 mmHg 94%
    06:00 +13°C° 0 mm 1 mps 678 mmHg 93%
    07:00 +15°C° 0 mm 1 mps 679 mmHg 87%
    08:00 +16°C° 0 mm 1 mps 679 mmHg 82%
    09:00 +19°C° 0 mm 1 mps 680 mmHg 76%
    10:00 +19°C° 0 mm 2 mps 680 mmHg 73%
    11:00 +20°C° 0 mm 2 mps 680 mmHg 69%
    12:00 +23°C° 0 mm 2 mps 680 mmHg 66%
    13:00 +23°C° 0 mm 2 mps 679 mmHg 67%
    14:00 +21°C° 0 mm 2 mps 679 mmHg 68%
    15:00 +21°C° 0 mm 2 mps 678 mmHg 70%
    16:00 +20°C° 0 mm 2 mps 678 mmHg 73%
    17:00 +20°C° 0 mm 2 mps 678 mmHg 77%
    18:00 +19°C° 0 mm 2 mps 678 mmHg 81%
    19:00 +18°C° 0 mm 2 mps 678 mmHg 85%
    20:00 +18°C° 0 mm 1 mps 678 mmHg 89%
    21:00 +16°C° 0 mm 1 mps 678 mmHg 93%
    22:00 +16°C° 0 mm 1 mps 678 mmHg 93%
    23:00 +16°C° 0 mm 1 mps 677 mmHg 94%

    22 November, Thursday

    Time Temperature Precipitation Wind Pressure Humidity
    00:00 +16°C° 0 mm 1 mps 677 mmHg 94%
    01:00 +16°C° 0.1 mm 1 mps 677 mmHg 95%
    02:00 +16°C° 0.1 mm 1 mps 676 mmHg 95%
    03:00 +16°C° 0.1 mm 1 mps 676 mmHg 95%
    04:00 +16°C° 0.2 mm 1 mps 676 mmHg 96%
    05:00 +16°C° 0.2 mm 1 mps 676 mmHg 96%
    06:00 +16°C° 0.2 mm 1 mps 676 mmHg 96%
    07:00 +18°C° 0.1 mm 1 mps 677 mmHg 93%
    08:00 +19°C° 0.1 mm 1 mps 677 mmHg 89%
    09:00 +20°C° 0.1 mm 1 mps 678 mmHg 85%
    10:00 +21°C° 0.1 mm 1 mps 678 mmHg 81%
    11:00 +23°C° 0.1 mm 1 mps 678 mmHg 76%
    12:00 +24°C° 0.1 mm 2 mps 678 mmHg 71%
    13:00 +24°C° 0.5 mm 2 mps 677 mmHg 71%
    14:00 +24°C° 0.5 mm 2 mps 677 mmHg 71%
    15:00 +25°C° 0.5 mm 2 mps 676 mmHg 70%
    16:00 +24°C° 0.2 mm 2 mps 676 mmHg 73%
    17:00 +23°C° 0.2 mm 1 mps 676 mmHg 76%
    18:00 +23°C° 0.2 mm 1 mps 675 mmHg 79%
    19:00 +21°C° 0 mm 1 mps 675 mmHg 85%
    20:00 +20°C° 0 mm 1 mps 675 mmHg 90%
    21:00 +18°C° 0 mm 1 mps 676 mmHg 96%
    22:00 +18°C° 0 mm 1 mps 675 mmHg 97%
    23:00 +18°C° 0 mm 1 mps 675 mmHg 97%
    Show more